Flag for Germany Weather past 2 weeks in Wismar, Mecklenburg-Western Pomerania, Germany

Now
69 °F

Overcast.


Feels Like: 69 °F
Forecast: 58 / 71 °F
Wind: 3 mph from Southwest

Location: Schwerin

Current Time: Jul 5, 2015 at 2:29:41 AM

Latest Report: Jul 5, 2015 at 2:00 AM


Visibility: 19 mi

Pressure: 30.07 "Hg

Humidity: 89%

Dew point: 65 °F

Location of WismarLocation

Historic Weather in Wismar — Graph

°F

Wismar temperature yesterday

Maximum temperature yesterday: 95 °F (at 3:00 PM)
Minimum temperature yesterday: 64 °F (at 6:00 AM)
Average temperature yesterday: 80 °F

Past Weeks' High & Low Weather Summary

 TemperatureHumidityPressure
High95 °F (Jul 4, 3:00 PM)98% (Jun 22, 4:00 AM)30.28 "Hg (Jun 22, 4:00 AM)
Low47 °F (Jun 21, 4:00 AM)29% (Jul 2, 4:00 PM)29.63 "Hg (Jun 23, 3:00 AM)
Average64 °F70%30.06 "Hg
* Reported Jun 20 1:00 AM — Jul 5 1:00 AM, Wismar, Weather by CustomWeather, © 2015

Note: Actual official high and low records may vary slightly from our data, if they occured in-between our weather recording intervals... More about our weather records

Advertising

Wismar weather history for previous 24 hours

 ConditionsComfort  
Time TempWeatherWind HumidityBarometerVisibility
1:00 AM
Sun, Jul 5
69 °FOvercast.3 mph91%30.06 "Hg15 mi
12:00 AM69 °FLight rain. Overcast.3 mph93%30.10 "Hg7 mi
10:00 PM
Sat, Jul 4
82 °FOvercast.2 mph65%30.02 "Hg7 mi
9:00 PM85 °FOvercast.2 mph59%30.02 "Hg7 mi
8:00 PM89 °FPartly sunny.2 mph54%30.02 "Hg6 mi
7:00 PM92 °FPassing clouds.3 mph46%30.02 "Hg8 mi
6:00 PM95 °FScattered clouds.2 mph37%30.03 "Hg8 mi
4:00 PM95 °FScattered clouds.2 mph32%30.05 "Hg8 mi
3:00 PM95 °FPassing clouds.2 mph33%30.06 "Hg9 mi
2:00 PM93 °FPassing clouds.3 mph36%30.07 "Hg8 mi
1:00 PM92 °FPassing clouds.3 mph36%30.09 "Hg10 mi
12:00 PM88 °FScattered clouds.3 mph37%30.11 "Hg12 mi
11:00 AM85 °FPassing clouds.1 mph48%30.12 "Hg10 mi
10:00 AM80 °FScattered clouds.2 mph57%30.14 "Hg7 mi
9:00 AM76 °FScattered clouds.2 mph64%30.14 "Hg6 mi
8:00 AM73 °FOvercast.2 mph72%30.15 "Hg6 mi
7:00 AM69 °FFog.2 mph84%30.16 "Hg4 mi
6:00 AM64 °FFog.1 mph93%30.18 "Hg3 mi
4:00 AM65 °FFog.2 mph91%30.19 "Hg3 mi
3:00 AM65 °FFog.2 mph87%30.20 "Hg4 mi
2:00 AM66 °FOvercast.2 mph84%30.21 "Hg6 mi
Weather by CustomWeather, © 2015

See weather overviewHow to use our weather pages